Retour au catalogue

COSMOS 1261 DEB

LostHEO
NORAD 12892·DEBRIS·🇷🇺 Russia

Lancé Mar 31, 1981 depuis Plesetsk Cosmodrome

Loading…

Prochains Passages (prochaines 24 heures)

TLE

PériméSource: Space-Track

Époque: Aug 6, 2026, 01:13 UTC

1 12892U 81031E   26218.05071072  .04794858  13496-6  36305-2 0  9999
2 12892  62.0873  73.4696 6392665  48.9363 350.9703  3.58962729260685

Suivez COSMOS 1261 DEB en temps réel avec AllMySat

Download on the App Store